Location: Hamayl? Da??
(36.7028°N, 30.1716°E)
Time: 10:48:26
(UTC+00:00)

ACS3 Solar Sail - Visible Passes

Search period start: 04 October 2024 00:00
Search period end: 14 October 2024 00:00
Orbit: 963 x 1036 km, 97.4° (Epoch: 04 October)

Date Brightness Start Highest point End Pass type
(mag) Time Alt. Az. Time Alt. Az. Time Alt. Az.
04 Oct 1.8 17:44:30 59° E 17:44:51 60° ENE 17:51:06 10° N visible
04 Oct 4.0 19:29:41 19° W 19:29:41 19° W 19:33:33 10° NW visible
05 Oct 3.3 16:31:50 15° E 16:33:37 16° ENE 16:37:22 10° NNE visible
05 Oct 1.9 18:17:01 75° W 18:17:01 75° W 18:23:12 10° NNW visible
06 Oct 2.6 17:04:21 29° E 17:05:13 30° ENE 17:10:36 10° N visible
06 Oct 3.0 18:49:32 40° W 18:49:32 40° W 18:54:53 10° NNW visible
07 Oct 1.9 17:36:52 54° ENE 17:37:00 54° ENE 17:43:10 10° N visible
07 Oct 3.9 19:22:03 21° W 19:22:03 21° W 19:25:55 10° NW visible
08 Oct 3.4 16:24:12 13° ENE 16:25:49 15° ENE 16:29:07 10° NNE visible
08 Oct 1.9 18:09:22 77° NW 18:09:22 77° NW 18:15:19 10° NNW visible
09 Oct 2.7 16:56:43 27° ENE 16:57:24 27° ENE 17:02:33 10° NNE visible
09 Oct 2.9 18:41:54 43° WNW 18:41:54 43° WNW 18:47:03 10° NNW visible
10 Oct 2.0 17:29:13 49° ENE 17:29:13 49° ENE 17:35:11 10° N visible
10 Oct 3.8 19:14:24 23° WNW 19:14:24 23° WNW 19:18:14 10° NW visible
11 Oct 3.4 16:16:33 12° ENE 16:18:00 13° ENE 16:20:45 10° NE visible
11 Oct 1.9 18:01:44 73° N 18:01:44 73° N 18:07:23 10° N visible
11 Oct 4.5 19:46:55 11° WNW 19:46:55 11° WNW 19:47:47 10° WNW visible
12 Oct 2.8 16:49:04 24° ENE 16:49:33 25° ENE 16:54:28 10° NNE visible
12 Oct 2.8 18:34:15 45° WNW 18:34:15 45° WNW 18:39:13 10° NNW visible
13 Oct 2.2 17:21:35 44° ENE 17:21:35 44° ENE 17:27:11 10° N visible
13 Oct 3.7 19:06:45 24° WNW 19:06:45 24° WNW 19:10:30 10° NW visible
